Home > Weather > Balurghat > Past weeks

Flag for India Past Weather in Balurghat, West Bengal, India — Yesterday and Last 2 Weeks

Now
97 °F

Broken clouds.


Feels Like: 126 °F
Forecast: 76 / 82 °F
Wind: No wind

Location: Lucknow / Amausi

Current Time: Jul 24, 2016 at 4:25:32 PM

Latest Report: Jul 24, 2016 at 4:00 PM


Visibility: 2 mi

Pressure: 29.53 "Hg

Humidity: 67%

Dew Point: 84 °F

Location of BalurghatLocation

Past Weather in Balurghat — Graph

°F

Balurghat Temperature Yesterday

Maximum temperature yesterday: 93 °F (at 12:30 PM)
Minimum temperature yesterday: 79 °F (at 6:00 PM)
Average temperature yesterday: 85 °F

High & Low Weather Summary for the Past Weeks

 TemperatureHumidityPressure
High99 °F (Jul 14, 3:00 PM)100% (Jul 13, 10:00 PM)29.65 "Hg (Jul 13, 10:00 PM)
Low79 °F (Jul 19, 5:00 AM)46% (Jul 19, 4:00 PM)29.33 "Hg (Jul 9, 4:30 PM)
Average88 °F85%29.50 "Hg
* Reported Jul 9 3:00 PM — Jul 24 3:00 PM, Balurghat, Weather by CustomWeather, © 2016

Note: Actual official high and low records may vary slightly from our data, if they occured in-between our weather recording intervals... More about our weather records

Advertising

Balurghat Weather History for the Previous 24 Hours

Scroll right to see more
 ConditionsComfort  
Time TempWeatherWind HumidityBarometerVisibility
3:00 PM
Sun, Jul 24
95 °FScattered clouds.2 mph71%29.53 "Hg2 mi
2:30 PM97 °FBroken clouds.3 mph67%29.56 "Hg2 mi
2:00 PM95 °FBroken clouds.6 mph71%29.56 "Hg2 mi
1:30 PM95 °FBroken clouds.6 mph71%29.56 "Hg2 mi
1:00 PM95 °FBroken clouds.3 mph71%29.59 "Hg2 mi
12:30 PM93 °FBroken clouds.2 mph75%29.62 "Hg2 mi
12:00 PM93 °FBroken clouds.3 mph75%29.62 "Hg2 mi
11:30 AM91 °FBroken clouds.5 mph80%29.62 "Hg2 mi
11:00 AM91 °FBroken clouds.5 mph80%29.62 "Hg2 mi
10:30 AM91 °FBroken clouds.3 mph80%29.65 "Hg2 mi
10:00 AM90 °FBroken clouds.5 mph89%29.65 "Hg2 mi
9:30 AM90 °FBroken clouds.3 mph84%29.65 "Hg2 mi
9:00 AM90 °FBroken clouds.3 mph84%29.65 "Hg2 mi
8:30 AM88 °FBroken clouds.5 mph89%29.62 "Hg2 mi
8:00 AM86 °FBroken clouds.3 mph94%29.62 "Hg2 mi
7:30 AM86 °FFog.No wind94%29.65 "Hg2 mi
7:00 AM86 °FFog.No wind89%29.62 "Hg2 mi
6:30 AM84 °FFog.No wind94%29.62 "Hg2 mi
6:00 AM84 °FFog.No wind94%29.62 "Hg2 mi
5:30 AM82 °FFog.No wind100%29.59 "Hg2 mi
4:00 AM82 °FPartly cloudy.No wind100%29.59 "Hg2 mi
3:00 AM82 °FPartly cloudy.No wind100%29.59 "Hg2 mi
2:00 AM82 °FPartly cloudy.No wind100%29.59 "Hg2 mi
1:00 AM82 °FPartly cloudy.No wind100%29.62 "Hg2 mi
12:00 AM81 °FPartly cloudy.No wind100%29.62 "Hg2 mi
11:00 PM
Sat, Jul 23
81 °FPartly cloudy.No wind100%29.62 "Hg2 mi
10:00 PM81 °FMostly cloudy.No wind100%29.62 "Hg1 mi
9:00 PM81 °FLight rain. Mostly cloudy.No wind100%29.59 "Hg1 mi
8:30 PM81 °FLight rain. Mostly cloudy.No wind100%29.59 "Hg1 mi
7:30 PM81 °FLight rain. Mostly cloudy.No wind100%29.59 "Hg1 mi
7:00 PM81 °FLight rain. Broken clouds.No wind100%29.56 "Hg2 mi
6:30 PM79 °FLight rain. More clouds than sun.8 mph100%29.59 "Hg2 mi
6:00 PM79 °FLight rain. More clouds than sun.8 mph100%29.59 "Hg2 mi
5:30 PM81 °FLight rain. More clouds than sun.9 mph70%29.56 "Hg2 mi
5:00 PM91 °FBroken clouds.5 mph75%29.53 "Hg2 mi
4:30 PM93 °FBroken clouds.3 mph71%29.53 "Hg2 mi
Weather by CustomWeather, © 2016

See weather overviewHow to use our weather pages